Home   Weather   Lewiston   Past weeks

Flag for USA Past Weather in Lewiston, Idaho, USA — Yesterday and Last 2 Weeks

Now
34 °F

Clear.


Feels Like: 27 °F
Forecast: 31 / 38 °F
Wind: 8 mph from East

Location: Lewiston-Nez Perce County Airport

Current Time: Jan 22, 2017 at 6:06:36 am

Latest Report: Jan 22, 2017 at 4:56 am


Visibility: 10 mi

Pressure: 29.74 "Hg

Humidity: 82%

Dew Point: 29 °F

Location of LewistonLocation

Past Weather in Lewiston — Graph

°F

Lewiston Temperature Yesterday

Maximum temperature yesterday: 46 °F (at 12:56 pm)
Minimum temperature yesterday: 35 °F (at 2:56 am)
Average temperature yesterday: 39 °F

High & Low Weather Summary for the Past Weeks

 TemperatureHumidityPressure
High46 °F (Jan 21, 12:56 pm)100% (Jan 9, 9:56 am)30.71 "Hg (Jan 9, 9:56 am)
Low9 °F (Jan 16, 8:56 am)46% (Jan 7, 12:56 pm)29.24 "Hg (Jan 20, 5:56 pm)
Average25 °F82%30.00 "Hg
* Reported Jan 7 4:56 am — Jan 22 4:56 am, Lewiston, Weather by CustomWeather, © 2017

Note: Actual official high and low records may vary slightly from our data, if they occured in-between our weather recording intervals... More about our weather records

Advertising

Lewiston Weather History for the Previous 24 Hours

Scroll right to see more
 ConditionsComfort  
Time TempWeatherWind HumidityBarometerVisibility
4:56 am
Sun, Jan 22
34 °FClear.8 mph82%29.74 "Hg10 mi
3:56 am36 °FClear.8 mph79%29.76 "Hg10 mi
2:56 am36 °FPartly cloudy.6 mph79%29.79 "Hg10 mi
1:56 am35 °FClear.5 mph82%29.79 "Hg10 mi
12:56 am37 °FPassing clouds.6 mph76%29.77 "Hg10 mi
11:56 pm
Sat, Jan 21
37 °FPartly cloudy.7 mph79%29.78 "Hg10 mi
10:56 pm37 °FOvercast.9 mph79%29.76 "Hg10 mi
9:56 pm38 °FMostly cloudy.5 mph76%29.75 "Hg10 mi
8:56 pm39 °FOvercast.No wind73%29.73 "Hg10 mi
7:56 pm39 °FPartly cloudy.No wind70%29.71 "Hg10 mi
6:56 pm40 °FOvercast.5 mph68%29.69 "Hg10 mi
5:56 pm39 °FPassing clouds.5 mph70%29.66 "Hg10 mi
4:56 pm42 °FOvercast.5 mph62%29.63 "Hg10 mi
3:56 pm42 °FOvercast.No wind65%29.62 "Hg10 mi
2:56 pm43 °FOvercast.9 mph62%29.59 "Hg10 mi
1:56 pm44 °FPassing clouds.8 mph63%29.55 "Hg10 mi
12:56 pm46 °FSunny.5 mph61%29.53 "Hg10 mi
11:56 am42 °FOvercast.3 mph68%29.52 "Hg10 mi
10:56 am40 °FOvercast.5 mph70%29.52 "Hg10 mi
9:56 am39 °FOvercast.5 mph70%29.50 "Hg10 mi
8:56 am37 °FOvercast.No wind79%29.46 "Hg10 mi
7:56 am37 °FOvercast.No wind76%29.43 "Hg10 mi
6:56 am36 °FOvercast.No wind79%29.41 "Hg10 mi
Weather by CustomWeather, © 2017

See weather overviewHow to use our weather pages